GLO1000 SBSP-SBRJ

Flight info

Callsign GLO1000
Flight time 0h 49m
Altitude 27000
Route NIBRU UZ171 KEVUN
Aircraft B738/M-SDFGIKLORWXY/LB1

Departure

Time 2026-05-03 21:36
Airport Congonhas–Deputado Freitas Nobre Airport (SBSP)

Arrival

Time 2026-05-03 22:26
Airport Santos Dumont Airport (SBRJ)
Time Latitude Longitude Altitude Speed Heading
2026-05-03 21:16 -23.62982 -46.65875 2599 ft 0 kts 328°
2026-05-03 21:22 -23.62995 -46.65865 2599 ft 2 kts 327°
2026-05-03 21:22 -23.63010 -46.65856 2599 ft 2 kts 346°
2026-05-03 21:22 -23.63025 -46.65860 2599 ft 2 kts 50°
2026-05-03 21:22 -23.63033 -46.65872 2599 ft 1 kts 57°
2026-05-03 21:23 -23.63034 -46.65874 2599 ft 0 kts 57°
2026-05-03 21:28 -23.63025 -46.65860 2599 ft 6 kts 57°
2026-05-03 21:28 -23.62997 -46.65813 2599 ft 8 kts 57°
2026-05-03 21:28 -23.62964 -46.65757 2599 ft 9 kts 57°
2026-05-03 21:28 -23.62932 -46.65702 2600 ft 8 kts 57°
2026-05-03 21:29 -23.62901 -46.65649 2600 ft 8 kts 57°
2026-05-03 21:29 -23.62855 -46.65627 2602 ft 8 kts 341°
2026-05-03 21:29 -23.62805 -46.65658 2602 ft 9 kts 328°
2026-05-03 21:29 -23.62748 -46.65698 2601 ft 11 kts 327°
2026-05-03 21:30 -23.62675 -46.65748 2601 ft 13 kts 328°
2026-05-03 21:30 -23.62591 -46.65807 2601 ft 15 kts 327°
2026-05-03 21:30 -23.62496 -46.65872 2600 ft 16 kts 326°
2026-05-03 21:30 -23.62412 -46.65930 2600 ft 14 kts 328°
2026-05-03 21:31 -23.62325 -46.65990 2599 ft 16 kts 327°
2026-05-03 21:31 -23.62245 -46.66042 2599 ft 11 kts 335°
2026-05-03 21:31 -23.62205 -46.66065 2587 ft 0 kts 327°
2026-05-03 21:32 -23.62204 -46.66065 2587 ft 1 kts 327°
2026-05-03 21:32 -23.62192 -46.66074 2598 ft 4 kts 327°
2026-05-03 21:32 -23.62159 -46.66097 2593 ft 7 kts 327°
2026-05-03 21:32 -23.62136 -46.66114 2590 ft 0 kts 327°
2026-05-03 21:34 -23.62134 -46.66115 2590 ft 1 kts 327°
2026-05-03 21:34 -23.62129 -46.66119 2590 ft 1 kts 326°
2026-05-03 21:34 -23.62125 -46.66122 2591 ft 0 kts 326°
2026-05-03 21:35 -23.62109 -46.66134 2590 ft 8 kts 329°
2026-05-03 21:35 -23.62037 -46.66118 2589 ft 11 kts 54°
2026-05-03 21:35 -23.62069 -46.66059 2588 ft 10 kts 147°
2026-05-03 21:36 -23.62127 -46.66019 2594 ft 12 kts 148°
2026-05-03 21:36 -23.62396 -46.65834 2601 ft 88 kts 148°
2026-05-03 21:36 -23.63136 -46.65321 2615 ft 161 kts 148°
2026-05-03 21:36 -23.64183 -46.64617 3326 ft 178 kts 147°
2026-05-03 21:37 -23.65098 -46.63758 4421 ft 183 kts 124°
2026-05-03 21:37 -23.65706 -46.62433 4770 ft 212 kts 116°
2026-05-03 21:37 -23.66402 -46.60900 5085 ft 237 kts 117°
2026-05-03 21:37 -23.67193 -46.59218 5521 ft 257 kts 117°
2026-05-03 21:38 -23.68037 -46.57464 6399 ft 263 kts 117°
2026-05-03 21:38 -23.68924 -46.55651 7133 ft 274 kts 117°
2026-05-03 21:38 -23.69804 -46.53869 7831 ft 283 kts 118°
2026-05-03 21:38 -23.70744 -46.51973 8602 ft 291 kts 118°
2026-05-03 21:39 -23.71680 -46.49974 9356 ft 300 kts 111°
2026-05-03 21:39 -23.71916 -46.47757 10168 ft 303 kts 83°
2026-05-03 21:39 -23.71609 -46.45447 10776 ft 316 kts 80°
2026-05-03 21:39 -23.71244 -46.42987 11123 ft 336 kts 80°
2026-05-03 21:40 -23.70862 -46.40439 11791 ft 342 kts 81°
2026-05-03 21:40 -23.70480 -46.37859 12565 ft 345 kts 81°
2026-05-03 21:40 -23.70106 -46.35295 13302 ft 350 kts 81°
2026-05-03 21:40 -23.69726 -46.32657 14050 ft 354 kts 81°
2026-05-03 21:41 -23.69342 -46.29982 14700 ft 359 kts 82°
2026-05-03 21:41 -23.68953 -46.27261 15261 ft 366 kts 82°
2026-05-03 21:41 -23.68557 -46.24490 15887 ft 372 kts 82°
2026-05-03 21:41 -23.68156 -46.21685 16477 ft 378 kts 82°
2026-05-03 21:42 -23.67748 -46.18837 17077 ft 383 kts 82°
2026-05-03 21:42 -23.67333 -46.15946 17657 ft 389 kts 81°
2026-05-03 21:42 -23.66916 -46.13043 18221 ft 395 kts 82°
2026-05-03 21:42 -23.66487 -46.10058 18744 ft 401 kts 81°
2026-05-03 21:43 -23.66052 -46.07030 19245 ft 405 kts 82°
2026-05-03 21:43 -23.65613 -46.03976 19759 ft 410 kts 82°
2026-05-03 21:43 -23.65169 -46.00882 20259 ft 414 kts 82°
2026-05-03 21:43 -23.64718 -45.97748 20736 ft 420 kts 81°
2026-05-03 21:44 -23.64266 -45.94616 21223 ft 425 kts 82°
2026-05-03 21:44 -23.63916 -45.92195 21606 ft 429 kts 81°
2026-05-03 21:44 -23.63469 -45.89107 22076 ft 433 kts 82°
2026-05-03 21:44 -23.62996 -45.85844 22558 ft 438 kts 81°
2026-05-03 21:45 -23.62517 -45.82540 23056 ft 442 kts 81°
2026-05-03 21:45 -23.62035 -45.79225 23637 ft 443 kts 81°
2026-05-03 21:45 -23.61552 -45.75905 24174 ft 443 kts 81°
2026-05-03 21:45 -23.61074 -45.72631 24668 ft 443 kts 81°
2026-05-03 21:46 -23.60588 -45.69296 25184 ft 443 kts 81°
2026-05-03 21:46 -23.60102 -45.65960 25628 ft 445 kts 81°
2026-05-03 21:46 -23.59614 -45.62633 26171 ft 444 kts 80°
2026-05-03 21:46 -23.59126 -45.59310 26717 ft 443 kts 80°
2026-05-03 21:47 -23.58638 -45.55991 27188 ft 443 kts 79°
2026-05-03 21:47 -23.58155 -45.52706 27215 ft 446 kts 79°
2026-05-03 21:47 -23.57664 -45.49375 27225 ft 443 kts 79°
2026-05-03 21:47 -23.57164 -45.46065 27234 ft 442 kts 78°
2026-05-03 21:48 -23.56544 -45.42775 27245 ft 442 kts 75°
2026-05-03 21:48 -23.55842 -45.39505 27236 ft 443 kts 74°
2026-05-03 21:48 -23.55114 -45.36239 27239 ft 444 kts 74°
2026-05-03 21:48 -23.54385 -45.32961 27226 ft 444 kts 75°
2026-05-03 21:49 -23.53668 -45.29691 27222 ft 443 kts 75°
2026-05-03 21:49 -23.52972 -45.26467 27219 ft 443 kts 75°
2026-05-03 21:49 -23.52272 -45.23189 27066 ft 445 kts 75°
2026-05-03 21:49 -23.51564 -45.19869 26529 ft 447 kts 75°
2026-05-03 21:50 -23.50867 -45.16583 26130 ft 442 kts 76°
2026-05-03 21:50 -23.50190 -45.13394 26310 ft 418 kts 75°
2026-05-03 21:50 -23.49548 -45.10372 26673 ft 402 kts 75°
2026-05-03 21:50 -23.48915 -45.07406 27047 ft 404 kts 75°
2026-05-03 21:51 -23.48271 -45.04407 26990 ft 420 kts 75°
2026-05-03 21:51 -23.47601 -45.01282 27238 ft 424 kts 75°
2026-05-03 21:51 -23.46920 -44.98103 27215 ft 435 kts 75°
2026-05-03 21:51 -23.46231 -44.94888 27226 ft 432 kts 75°
2026-05-03 21:52 -23.45539 -44.91710 27225 ft 428 kts 74°
2026-05-03 21:52 -23.44839 -44.88557 27217 ft 426 kts 74°
2026-05-03 21:52 -23.44148 -44.85462 27229 ft 427 kts 74°
2026-05-03 21:52 -23.43443 -44.82308 27239 ft 428 kts 74°
2026-05-03 21:53 -23.42739 -44.79154 27224 ft 429 kts 74°
2026-05-03 21:53 -23.42033 -44.75992 27221 ft 430 kts 74°
2026-05-03 21:53 -23.41328 -44.72827 27217 ft 430 kts 74°
2026-05-03 21:53 -23.40624 -44.69668 27220 ft 430 kts 74°
2026-05-03 21:54 -23.39917 -44.66499 27219 ft 429 kts 74°
2026-05-03 21:54 -23.39211 -44.63339 27213 ft 429 kts 74°
2026-05-03 21:54 -23.38504 -44.60176 27213 ft 429 kts 74°
2026-05-03 21:54 -23.37807 -44.57062 27215 ft 429 kts 74°
2026-05-03 21:55 -23.37100 -44.53904 27216 ft 426 kts 74°
2026-05-03 21:55 -23.36410 -44.50821 27190 ft 412 kts 74°
2026-05-03 21:55 -23.35744 -44.47845 27190 ft 396 kts 74°
2026-05-03 21:55 -23.35098 -44.44968 26970 ft 389 kts 74°
2026-05-03 21:56 -23.34458 -44.42115 26597 ft 387 kts 76°
2026-05-03 21:56 -23.34264 -44.39219 26278 ft 382 kts 99°
2026-05-03 21:56 -23.34986 -44.36497 25978 ft 368 kts 123°
2026-05-03 21:56 -23.36422 -44.34284 25632 ft 350 kts 144°
2026-05-03 21:57 -23.38286 -44.32767 25282 ft 331 kts 163°
2026-05-03 21:57 -23.40390 -44.31942 24935 ft 311 kts 180°
2026-05-03 21:57 -23.42487 -44.31796 24604 ft 294 kts 195°
2026-05-03 21:57 -23.44434 -44.32231 24266 ft 279 kts 209°
2026-05-03 21:58 -23.46135 -44.33138 23950 ft 267 kts 221°
2026-05-03 21:58 -23.47535 -44.34377 23602 ft 260 kts 230°
2026-05-03 21:58 -23.48730 -44.35827 23189 ft 256 kts 237°
2026-05-03 21:58 -23.49617 -44.37483 22738 ft 253 kts 251°
2026-05-03 21:59 -23.50118 -44.39316 22318 ft 252 kts 256°
2026-05-03 21:59 -23.50552 -44.41170 21922 ft 252 kts 256°
2026-05-03 21:59 -23.50976 -44.43025 21536 ft 252 kts 256°
2026-05-03 21:59 -23.51398 -44.44875 21157 ft 252 kts 257°
2026-05-03 22:00 -23.51819 -44.46727 20786 ft 252 kts 257°
2026-05-03 22:00 -23.52241 -44.48577 20427 ft 251 kts 257°
2026-05-03 22:00 -23.52662 -44.50426 20065 ft 251 kts 257°
2026-05-03 22:00 -23.53082 -44.52274 19700 ft 252 kts 257°
2026-05-03 22:01 -23.53500 -44.54108 19348 ft 252 kts 257°
2026-05-03 22:01 -23.53850 -44.55971 18990 ft 251 kts 268°
2026-05-03 22:01 -23.53691 -44.57862 18660 ft 251 kts 280°
2026-05-03 22:01 -23.53194 -44.59689 18293 ft 252 kts 289°
2026-05-03 22:02 -23.52403 -44.61412 17892 ft 255 kts 298°
2026-05-03 22:02 -23.51317 -44.62958 17518 ft 259 kts 310°
2026-05-03 22:02 -23.49937 -44.64205 17135 ft 264 kts 323°
2026-05-03 22:02 -23.48267 -44.65065 16773 ft 269 kts 338°
2026-05-03 22:03 -23.46413 -44.65439 16423 ft 274 kts 353°
2026-05-03 22:03 -23.44505 -44.65277 16157 ft 276 kts
2026-05-03 22:03 -23.42658 -44.64692 15925 ft 278 kts 17°
2026-05-03 22:03 -23.41031 -44.63501 15666 ft 294 kts 49°
2026-05-03 22:04 -23.39963 -44.61460 15510 ft 328 kts 68°
2026-05-03 22:04 -23.39224 -44.59054 15281 ft 338 kts 73°
2026-05-03 22:04 -23.38567 -44.56631 15038 ft 337 kts 73°
2026-05-03 22:04 -23.37909 -44.54191 14798 ft 334 kts 73°
2026-05-03 22:05 -23.37239 -44.51772 14550 ft 331 kts 73°
2026-05-03 22:05 -23.36562 -44.49393 14423 ft 324 kts 72°
2026-05-03 22:05 -23.35888 -44.47061 14428 ft 323 kts 72°
2026-05-03 22:05 -23.35206 -44.44719 14436 ft 327 kts 72°
2026-05-03 22:06 -23.34510 -44.42345 14439 ft 329 kts 71°
2026-05-03 22:06 -23.33684 -44.40055 14432 ft 328 kts 65°
2026-05-03 22:06 -23.32717 -44.37808 14431 ft 327 kts 64°
2026-05-03 22:06 -23.31722 -44.35586 14425 ft 326 kts 64°
2026-05-03 22:07 -23.30729 -44.33364 14431 ft 326 kts 64°
2026-05-03 22:07 -23.29746 -44.31139 14434 ft 326 kts 64°
2026-05-03 22:07 -23.28773 -44.28913 14378 ft 326 kts 64°
2026-05-03 22:07 -23.27807 -44.26688 14115 ft 322 kts 64°
2026-05-03 22:08 -23.26861 -44.24499 13772 ft 317 kts 65°
2026-05-03 22:08 -23.25929 -44.22336 13426 ft 314 kts 65°
2026-05-03 22:08 -23.25010 -44.20202 13083 ft 310 kts 65°
2026-05-03 22:08 -23.24101 -44.18092 12754 ft 306 kts 65°
2026-05-03 22:09 -23.23209 -44.16021 12433 ft 303 kts 64°
2026-05-03 22:09 -23.22321 -44.13961 12108 ft 300 kts 65°
2026-05-03 22:09 -23.21439 -44.11916 11786 ft 296 kts 64°
2026-05-03 22:10 -23.19701 -44.07897 11206 ft 289 kts 64°
2026-05-03 22:10 -23.18815 -44.05949 11056 ft 287 kts 63°
2026-05-03 22:10 -23.17912 -44.03999 10917 ft 298 kts 63°
2026-05-03 22:10 -23.16970 -44.01961 10731 ft 301 kts 63°
2026-05-03 22:11 -23.16024 -43.99911 10494 ft 303 kts 63°
2026-05-03 22:11 -23.15081 -43.97862 10263 ft 302 kts 63°
2026-05-03 22:11 -23.14141 -43.95817 10022 ft 302 kts 63°
2026-05-03 22:11 -23.13214 -43.93791 9761 ft 296 kts 63°
2026-05-03 22:12 -23.12312 -43.91833 9494 ft 291 kts 63°
2026-05-03 22:12 -23.11408 -43.89883 9272 ft 286 kts 64°
2026-05-03 22:12 -23.10512 -43.87965 9206 ft 284 kts 63°
2026-05-03 22:12 -23.09618 -43.86045 9205 ft 285 kts 62°
2026-05-03 22:13 -23.08733 -43.84111 9196 ft 286 kts 62°
2026-05-03 22:13 -23.08134 -43.82836 9195 ft 285 kts 64°
2026-05-03 22:13 -23.07230 -43.80913 9200 ft 286 kts 63°
2026-05-03 22:13 -23.06052 -43.78347 9132 ft 285 kts 64°
2026-05-03 22:14 -23.05511 -43.77023 9004 ft 282 kts 66°
2026-05-03 22:14 -23.04506 -43.74423 8518 ft 282 kts 67°
2026-05-03 22:14 -23.04011 -43.73129 8190 ft 279 kts 68°
2026-05-03 22:14 -23.03276 -43.71210 7963 ft 271 kts 68°
2026-05-03 22:15 -23.02549 -43.69312 7786 ft 271 kts 68°
2026-05-03 22:15 -23.01832 -43.67448 7600 ft 264 kts 68°
2026-05-03 22:15 -23.01130 -43.65628 7406 ft 257 kts 68°
2026-05-03 22:15 -23.00446 -43.63852 7144 ft 254 kts 68°
2026-05-03 22:16 -22.99842 -43.62294 7008 ft 248 kts 68°
2026-05-03 22:16 -22.99124 -43.60616 6862 ft 243 kts 65°
2026-05-03 22:16 -22.98394 -43.58985 6710 ft 238 kts 65°
2026-05-03 22:16 -22.97674 -43.57368 6569 ft 238 kts 66°
2026-05-03 22:17 -22.96956 -43.55745 6430 ft 237 kts 66°
2026-05-03 22:17 -22.96243 -43.54130 6295 ft 238 kts 66°
2026-05-03 22:17 -22.95527 -43.52507 6161 ft 238 kts 66°
2026-05-03 22:17 -22.94810 -43.50878 5973 ft 241 kts 66°
2026-05-03 22:18 -22.94110 -43.49236 5737 ft 243 kts 67°
2026-05-03 22:18 -22.93404 -43.47564 5472 ft 243 kts 67°
2026-05-03 22:18 -22.92698 -43.45896 5205 ft 241 kts 67°
2026-05-03 22:18 -22.92015 -43.44280 4929 ft 233 kts 67°
2026-05-03 22:19 -22.91363 -43.42742 4717 ft 217 kts 67°
2026-05-03 22:19 -22.90744 -43.41284 4507 ft 208 kts 68°
2026-05-03 22:19 -22.90145 -43.39874 4316 ft 204 kts 68°
2026-05-03 22:19 -22.89555 -43.38479 4172 ft 202 kts 68°
2026-05-03 22:20 -22.88974 -43.37110 4009 ft 197 kts 67°
2026-05-03 22:20 -22.88417 -43.35781 3825 ft 189 kts 71°
2026-05-03 22:20 -22.88276 -43.34416 3648 ft 178 kts 98°
2026-05-03 22:20 -22.88354 -43.33072 3505 ft 182 kts 96°
2026-05-03 22:21 -22.88399 -43.31701 3334 ft 180 kts 95°
2026-05-03 22:21 -22.88441 -43.30355 3159 ft 175 kts 95°
2026-05-03 22:21 -22.88482 -43.29055 3026 ft 169 kts 95°
2026-05-03 22:21 -22.88522 -43.27801 2878 ft 164 kts 95°
2026-05-03 22:22 -22.88565 -43.26580 2716 ft 164 kts 97°
2026-05-03 22:22 -22.88909 -43.25420 2528 ft 159 kts 118°
2026-05-03 22:22 -22.89345 -43.24310 2320 ft 159 kts 115°
2026-05-03 22:22 -22.89743 -43.23243 2166 ft 144 kts 115°
2026-05-03 22:23 -22.90116 -43.22238 1946 ft 142 kts 115°
2026-05-03 22:23 -22.90509 -43.21277 1770 ft 140 kts 120°
2026-05-03 22:23 -22.90967 -43.20533 1632 ft 139 kts 134°
2026-05-03 22:23 -22.91703 -43.19891 1459 ft 137 kts 152°
2026-05-03 22:24 -22.92583 -43.19504 1307 ft 137 kts 167°
2026-05-03 22:24 -22.93531 -43.19361 1134 ft 138 kts 174°
2026-05-03 22:24 -22.94364 -43.18896 914 ft 137 kts 132°
2026-05-03 22:24 -22.94699 -43.17921 781 ft 143 kts 97°
2026-05-03 22:25 -22.94500 -43.16880 579 ft 142 kts 57°
2026-05-03 22:25 -22.93755 -43.16247 419 ft 137 kts 20°
2026-05-03 22:25 -22.92854 -43.16139 253 ft 129 kts 357°
2026-05-03 22:25 -22.91975 -43.16217 95 ft 127 kts 355°
2026-05-03 22:26 -22.91143 -43.16278 22 ft 100 kts 355°
2026-05-03 22:26 -22.90744 -43.16304 26 ft 42 kts 357°
2026-05-03 22:26 -22.90535 -43.16316 24 ft 17 kts 349°
2026-05-03 22:26 -22.90492 -43.16413 23 ft 10 kts 265°
2026-05-03 22:27 -22.90498 -43.16489 22 ft 10 kts 265°
2026-05-03 22:27 -22.90523 -43.16555 21 ft 10 kts 195°
2026-05-03 22:27 -22.90540 -43.16552 21 ft 5 kts 177°
2026-05-03 22:27 -22.90603 -43.16550 22 ft 12 kts 179°
2026-05-03 22:28 -22.90689 -43.16547 22 ft 12 kts 176°
2026-05-03 22:28 -22.90772 -43.16541 23 ft 12 kts 177°
2026-05-03 22:28 -22.90850 -43.16550 21 ft 11 kts 181°
2026-05-03 22:28 -22.90915 -43.16546 21 ft 9 kts 176°
2026-05-03 22:29 -22.90972 -43.16542 23 ft 8 kts 176°
2026-05-03 22:29 -22.91030 -43.16538 21 ft 8 kts 176°
2026-05-03 22:29 -22.91084 -43.16533 23 ft 8 kts 168°
2026-05-03 22:29 -22.91136 -43.16519 21 ft 8 kts 176°
2026-05-03 22:30 -22.91186 -43.16515 23 ft 6 kts 177°
2026-05-03 22:30 -22.91207 -43.16537 21 ft 5 kts 265°
2026-05-03 22:30 -22.91208 -43.16577 21 ft 5 kts 267°
2026-05-03 22:30 -22.91209 -43.16579 21 ft 0 kts 267°